This demonstration page uses our WeatherBlox Daily Observations layout. Learn more.

40.92945, -100.16068

Hourly Observations for March 10, 2020

Temp ( °F °C ) Dew Point ( °F °C ) Humidity (%) Winds ( mph kmh ) Pressure ( in mb ) Visibility ( mi km ) Precip ( " mm )
12:15 am 00:15 Clear 31 -0.6 31 -0.7 99 99 SSE 3 6 30.3 1026 10 16.0934 0 0
12:35 am 00:35 Mostly Cloudy 31 -0.3 31 -0.3 100 100 ESE 5 7 30.3 1026 7 11.26538 0 0
12:55 am 00:55 Cloudy with Mist and Fog 32 -0.2 32 -0.2 100 100 E 5 7 30.3 1026 2 3.21868 0 0
1:15 am 01:15 Cloudy with Freezing Fog 31 -0.3 31 -0.3 100 100 E 6 9 30.3 1026 0.25 0.402335 0 0
1:35 am 01:35 Cloudy with Freezing Fog 31 -0.5 31 -0.5 100 100 ESE 5 7 30.31 1027 0.25 0.402335 0 0
1:55 am 01:55 Cloudy with Freezing Fog 31 -0.7 31 -0.7 100 100 SE 5 7 30.31 1027 0.25 0.402335 0 0
2:15 am 02:15 Cloudy with Freezing Fog 31 -0.6 31 -0.6 100 100 SE 6 9 30.31 1027 0.5 0.80467 0 0
2:35 am 02:35 Cloudy with Freezing Fog 31 -0.5 31 -0.5 100 100 S 7 11 30.33 1027 0.5 0.80467 0 0
2:55 am 02:55 Cloudy with Freezing Fog 31 -0.5 31 -0.5 100 100 SSE 6 9 30.32 1027 0.25 0.402335 0 0
3:15 am 03:15 Cloudy with Freezing Fog 30 -0.9 30 -0.9 100 100 ESE 5 7 30.32 1027 0.5 0.80467 0 0
3:35 am 03:35 Cloudy with Freezing Fog 30 -1 30 -1 100 100 S 6 9 30.33 1027 0.5 0.80467 0 0
3:55 am 03:55 Cloudy with Mist and Fog 31 -0.8 31 -0.8 100 100 SE 3 6 30.32 1027 0.75 1.207005 0 0
4:15 am 04:15 Cloudy with Mist and Fog 31 -0.6 31 -0.6 100 100 S 6 9 30.3 1026 0.75 1.207005 0 0
4:35 am 04:35 Cloudy with Freezing Fog 31 -0.5 31 -0.5 100 100 SSE 6 9 30.29 1026 0.25 0.402335 0 0
4:55 am 04:55 Cloudy with Freezing Fog 31 -0.5 31 -0.5 100 100 S 5 7 30.29 1026 0.25 0.402335 0 0
5:15 am 05:15 Cloudy with Freezing Fog 31 -0.5 31 -0.5 100 100 Calm 30.3 1026 0.25 0.402335 0 0
5:35 am 05:35 Cloudy with Freezing Fog 31 -0.3 31 -0.3 100 100 SSW 3 6 30.32 1027 0.5 0.80467 0 0
5:55 am 05:55 Cloudy with Freezing Fog 32 -0.2 32 -0.2 100 100 Calm 30.31 1026 0.5 0.80467 0 0
6:15 am 06:15 Cloudy with Freezing Fog 32 -0.2 32 -0.2 100 100 SE 3 6 30.3 1026 0.5 0.80467 0 0
6:35 am 06:35 Cloudy with Mist and Fog 32 -0.1 32 -0.1 100 100 SE 3 6 30.3 1026 0.75 1.207005 0 0
6:55 am 06:55 Cloudy with Mist and Fog 32 0 32 0 100 100 SE 3 6 30.3 1026 0.75 1.207005 0 0
7:15 am 07:15 Cloudy with Mist and Fog 32 0 32 0 100 100 SSE 6 9 30.29 1026 0.75 1.207005 0 0
7:35 am 07:35 Cloudy with Mist and Fog 32 0 32 0 100 100 SSE 8 13 30.29 1026 1.5 2.41401 0 0
7:55 am 07:55 Cloudy with Mist and Fog 32 0 32 0 100 100 S 5 7 30.3 1026 2.5 4.02335 0 0
8:15 am 08:15 Cloudy with Mist and Fog 32 0.1 32 0.1 100 100 SSE 9 15 30.28 1025 1.25 2.011675 0 0
8:35 am 08:35 Cloudy with Fog 33 0.5 33 0.5 100 100 S 8 13 30.29 1026 0.5 0.80467 0 0
8:55 am 08:55 Cloudy with Fog 33 0.7 33 0.7 100 100 S 8 13 30.29 1026 0.5 0.80467 0 0
9:15 am 09:15 Cloudy with Mist and Fog 34 1 34 1 100 100 S 7 11 30.29 1026 1.5 2.41401 0 0
9:35 am 09:35 Cloudy with Mist and Fog 34 1.2 34 1.2 100 100 SSE 8 13 30.28 1025 0.75 1.207005 0 0
9:55 am 09:55 Cloudy with Mist and Fog 35 1.6 35 1.6 100 100 S 6 9 30.28 1025 1.25 2.011675 0 0
10:15 am 10:15 Cloudy with Mist and Fog 36 2 36 2 100 100 S 6 9 30.27 1025 4 6.43736 0 0
10:35 am 10:35 Cloudy with Mist and Fog 37 2.8 37 2.8 100 100 S 7 11 30.26 1025 5 8.0467 0 0
10:55 am 10:55 Cloudy 39 4 39 4 100 100 SSW 7 11 30.26 1025 7 11.26538 0 0
11:15 am 11:15 Cloudy 41 5 40 4.5 97 97 SW 3 6 30.25 1024 10 16.0934 0 0
11:35 am 11:35 Cloudy 42 5.4 40 4.4 93 93 SSW 5 7 30.24 1024 10 16.0934 0 0
11:55 am 11:55 Cloudy 44 6.4 41 5 91 91 SSW 6 9 30.23 1024 10 16.0934 0 0
12:15 pm 12:15 Cloudy 44 6.8 42 5.3 90 90 S 8 13 30.2 1023 10 16.0934 0 0
12:35 pm 12:35 Mostly Cloudy 46 7.5 42 5.8 89 89 SE 7 11 30.18 1022 10 16.0934 0 0
12:55 pm 12:55 Partly Cloudy 48 8.9 43 6.1 83 83 SSE 10 17 30.15 1021 10 16.0934 0 0
1:15 pm 13:15 Mostly Cloudy 51 10.5 43 6.3 75 75 S 13 20 30.15 1021 10 16.0934 0 0
1:35 pm 13:35 Mostly Cloudy 51 10.6 43 6.3 75 75 S 9 15 30.14 1021 10 16.0934 0 0
1:55 pm 13:55 Mostly Cloudy 51 10.7 44 6.4 75 75 S 10 17 30.11 1020 10 16.0934 0 0
2:15 pm 14:15 Mostly Cloudy 52 11.1 44 6.5 74 74 SSE 12 19 30.08 1019 10 16.0934 0 0
2:35 pm 14:35 Partly Cloudy 53 11.6 45 7 74 74 SSE 10 17 30.07 1018 10 16.0934 0 0
2:55 pm 14:55 Partly Cloudy 56 13.4 45 7.3 67 67 S 13 20 30.03 1017 10 16.0934 0 0
3:15 pm 15:15 Mostly Cloudy 55 12.9 44 6.8 67 67 S 12 19 30.03 1017 10 16.0934 0 0
3:35 pm 15:35 Partly Cloudy 56 13.3 45 7.3 67 67 SSW 18 30 30.01 1016 10 16.0934 0 0
3:55 pm 15:55 Partly Cloudy 57 13.9 45 7.4 65 65 SW 13 20 30.01 1016 10 16.0934 0 0
4:15 pm 16:15 Sunny 57 14.1 46 7.6 65 65 S 13 20 30 1016 10 16.0934 0 0
4:35 pm 16:35 Sunny 58 14.3 46 7.5 64 64 SSW 14 22 29.99 1016 10 16.0934 0 0
4:55 pm 16:55 Sunny 59 15 45 7.3 60 60 SSW 10 17 29.99 1015 10 16.0934 0 0
5:15 pm 17:15 Sunny 58 14.6 45 7.3 62 62 SSW 13 20 29.98 1015 10 16.0934 0 0
5:35 pm 17:35 Sunny 58 14.7 45 7.2 61 61 SW 13 20 29.98 1015 10 16.0934 0 0
5:55 pm 17:55 Sunny 58 14.2 45 7.3 63 63 SW 12 19 29.98 1015 10 16.0934 0 0
6:15 pm 18:15 Sunny with Nearby Thunderstorms 57 14 44 6.9 63 63 SSW 9 15 29.97 1015 10 16.0934 0 0
6:35 pm 18:35 Sunny 57 13.8 45 7.3 65 65 SSW 7 11 29.98 1015 10 16.0934 0 0
6:55 pm 18:55 Sunny 56 13.2 46 7.5 69 69 SSW 7 11 29.99 1016 10 16.0934 0 0
7:15 pm 19:15 Sunny 55 12.9 45 7.1 68 68 SW 5 7 30 1016 10 16.0934 0 0
7:35 pm 19:35 Partly Cloudy 54 12 45 7 72 72 SW 5 7 30.02 1017 10 16.0934 0 0
7:55 pm 19:55 Partly Cloudy 53 11.4 44 6.8 74 74 Calm 30.03 1017 10 16.0934 0 0
8:15 pm 20:15 Partly Cloudy 52 11.1 45 7.1 77 77 N 9 15 30.04 1017 10 16.0934 0 0
8:35 pm 20:35 Mostly Cloudy 51 10.8 44 6.9 77 77 N 7 11 30.05 1018 10 16.0934 0 0
8:55 pm 20:55 Cloudy 52 11 42 5.7 70 70 ENE 6 9 30.05 1018 10 16.0934 0 0
9:15 pm 21:15 Cloudy 52 11.3 43 5.9 70 70 SSE 6 9 30.06 1018 10 16.0934 0 0
9:35 pm 21:35 Cloudy 50 10 45 7 82 82 SSE 3 6 30.07 1018 10 16.0934 0 0
9:55 pm 21:55 Cloudy 50 10 45 7 82 82 Calm 30.08 1019 10 16.0934 0 0
10:15 pm 22:15 Mostly Cloudy 48 9.1 43 6.1 82 82 NNW 8 13 30.1 1019 10 16.0934 0 0
10:35 pm 22:35 Partly Cloudy 45 7.4 41 5 85 85 N 12 19 30.11 1019 10 16.0934 0 0
10:55 pm 22:55 Clear 43 6.1 40 4.6 90 90 N 9 15 30.12 1020 10 16.0934 0 0
11:15 pm 23:15 Clear 41 4.8 39 4 95 95 N 10 17 30.13 1020 10 16.0934 0 0
11:35 pm 23:35 Clear 41 5.1 40 4.3 95 95 N 9 15 30.14 1021 10 16.0934 0 0
11:55 pm 23:55 Clear 39 4 38 3.4 96 96 N 9 15 30.15 1021 10 16.0934 0 0

Powered by AerisWeather